Satellite-Ground Cal/Val Region Overpasses Predictions

Prediction of Satellite NPP Overpassing Cal/Val Region: PacNW

Region Location: (Latitude: 10.00, Longitude: 139.50) to (Latitude: 22.70, Longitude: 165.60).

Table of predicted overpasses for the next 14.0 days since TLE Epoch: 5/7/2018
Interval Starting Time Starting Location Ending Time Ending Location
1 05/08/2018 03:36:18 ( 10.05, 145.61) 05/08/2018 03:39:53 ( 22.67, 142.61)
2 05/08/2018 14:29:49 ( 11.65, 165.59) 05/08/2018 14:30:17 ( 10.00, 165.22)
3 05/08/2018 16:08:11 ( 22.68, 142.86) 05/08/2018 16:11:46 ( 10.06, 139.85)
4 05/09/2018 03:17:15 ( 10.01, 150.38) 05/09/2018 03:20:51 ( 22.69, 147.36)
5 05/09/2018 15:49:09 ( 22.66, 147.61) 05/09/2018 15:52:44 ( 10.04, 144.61)
6 05/10/2018 02:58:14 ( 10.03, 155.14) 05/10/2018 03:01:49 ( 22.65, 152.13)
7 05/10/2018 15:30:08 ( 22.64, 152.37) 05/10/2018 15:33:43 ( 10.02, 149.36)
8 05/11/2018 02:39:12 ( 10.05, 159.89) 05/11/2018 02:42:47 ( 22.67, 156.89)
9 05/11/2018 15:11:05 ( 22.68, 157.13) 05/11/2018 15:14:41 ( 10.01, 154.12)
10 05/12/2018 02:20:10 ( 10.01, 164.66) 05/12/2018 02:23:46 ( 22.69, 161.64)
11 05/12/2018 14:52:04 ( 22.66, 161.89) 05/12/2018 14:55:39 ( 10.05, 158.88)
12 05/13/2018 03:42:38 ( 10.03, 144.03) 05/13/2018 03:46:13 ( 22.65, 141.03)
13 05/13/2018 14:34:15 ( 18.37, 165.59) 05/13/2018 14:36:37 ( 10.03, 163.64)
14 05/13/2018 16:14:31 ( 22.70, 141.28) 05/13/2018 16:16:36 ( 15.37, 139.50)
15 05/14/2018 03:23:37 ( 10.05, 148.79) 05/14/2018 03:27:12 ( 22.67, 145.78)
16 05/14/2018 15:55:30 ( 22.68, 146.03) 05/14/2018 15:59:06 ( 10.00, 143.02)
17 05/15/2018 03:04:35 ( 10.01, 153.55) 05/15/2018 03:08:11 ( 22.69, 150.54)
18 05/15/2018 15:36:28 ( 22.66, 150.79) 05/15/2018 15:40:03 ( 10.04, 147.78)
19 05/16/2018 02:45:33 ( 10.03, 158.31) 05/16/2018 02:49:08 ( 22.66, 155.30)
20 05/16/2018 15:17:26 ( 22.70, 155.55) 05/16/2018 15:21:02 ( 10.02, 152.54)
21 05/17/2018 02:26:32 ( 10.06, 163.06) 05/17/2018 02:30:07 ( 22.68, 160.06)
22 05/17/2018 14:58:24 ( 22.68, 160.31) 05/17/2018 15:01:59 ( 10.06, 157.30)
23 05/18/2018 02:10:11 ( 19.53, 165.59) 05/18/2018 02:11:05 ( 22.70, 164.81)
24 05/18/2018 03:48:59 ( 10.02, 142.45) 05/18/2018 03:52:30 ( 22.41, 139.51)
25 05/18/2018 14:39:23 ( 22.66, 165.06) 05/18/2018 14:42:58 ( 10.04, 162.06)
26 05/18/2018 16:20:53 ( 22.65, 139.68) 05/18/2018 16:21:05 ( 21.95, 139.51)
27 05/19/2018 03:29:58 ( 10.05, 147.21) 05/19/2018 03:33:33 ( 22.67, 144.20)
28 05/19/2018 16:01:50 ( 22.69, 144.45) 05/19/2018 16:05:26 ( 10.01, 141.43)
29 05/20/2018 03:10:55 ( 10.01, 151.97) 05/20/2018 03:14:31 ( 22.69, 148.95)
30 05/20/2018 15:42:49 ( 22.67, 149.20) 05/20/2018 15:46:24 ( 10.05, 146.20)
31 05/21/2018 02:51:54 ( 10.03, 156.73) 05/21/2018 02:55:29 ( 22.65, 153.72)


NCC Satellite Cal/Val Overpasses Prediction Service
